Weather History for Hill City, KS

Change the Weather History Date:

Wednesday, November 16, 2011

  Actual Average Record
Temperature  
Mean Temperature 29 °F 40 °F  
Max Temperature 37 °F 54 °F 79 °F (1975)
Min Temperature 20 °F 27 °F -3 °F (1955)
Degree Days  
Heating Degree Days 36    
Moisture  
Dew Point 25 °F    
Average Humidity 81    
Maximum Humidity 93    
Minimum Humidity 40    
Precipitation  
Precipitation 0.01 in 0.03 in 1.33 in (1996)
Month to date precipitation 0.55 0.59  
Year to date precipitation 19.62 21.87  
Sea Level Pressure  
Sea Level Pressure 30.32 in    
Wind  
Wind Speed 9 mph (North)    
Max Wind Speed 21 mph    
Max Gust Speed 24 mph    
Visibility 6 miles    
Events Fog , Snow    
T = Trace of Precipitation, MM = Missing Value Source: NWS Daily Summary

Daily Weather History Graph

Daily Weather History Graph

Search for Another Location

Airport:

Trip Planner

Search our weather history database for the weather conditions in past years. The results will help you decide how hot, cold, wet, or windy it might be!

Date:

Astronomy

Nov. 16, 2011 Rise Set
Actual Time 7:23 AM CST 5:23 PM CST
Civil Twilight 6:55 AM CST 5:52 PM CST
Nautical Twilight 6:22 AM CST 6:25 PM CST
Astronomical Twilight 5:50 AM CST 6:56 PM CST
Moon 10:39 PM CST (11/16) 12:01 PM CST (11/16)
Length of Visible Light 10h 57m
Length of Day
9h 59m
Waning Gibbous, 70% of the Moon is Illuminated
Nov 16
Waning Gibbous
Nov 18
Last Quarter
Nov 25
New
Dec 2
First Quarter
Dec 10
Full

Hourly Weather History & Observations

Time (CST) Temp. Windchill Dew Point Humidity Pressure Visibility Wind Dir Wind Speed Gust Speed Precip Events Conditions
12:53 AM 36.0 °F 28.0 °F 16.0 °F 44% 30.09 in 10.0 mi NE 11.5 mph - N/A   Overcast
1:53 AM 34.0 °F 28.8 °F 16.0 °F 48% 30.12 in 10.0 mi NE 5.8 mph - N/A   Overcast
2:53 AM 35.1 °F 29.3 °F 15.1 °F 44% 30.13 in 10.0 mi ENE 6.9 mph - N/A   Overcast
3:53 AM 35.1 °F 25.9 °F 12.9 °F 40% 30.15 in 10.0 mi NNE 13.8 mph - N/A   Overcast
4:53 AM 33.1 °F 21.2 °F 19.0 °F 56% 30.20 in 8.0 mi North 20.7 mph 24.2 mph N/A   Overcast
5:29 AM 30.2 °F 19.3 °F 26.6 °F 86% 30.19 in 1.8 mi NNE 15.0 mph - 0.00 in Snow Light Snow
5:33 AM 30.2 °F 19.3 °F 26.6 °F 86% 30.19 in 1.2 mi NNE 15.0 mph - 0.00 in Snow Light Snow
5:53 AM 28.9 °F 18.6 °F 27.0 °F 92% 30.24 in 1.8 mi NNE 12.7 mph - 0.00 in Snow Light Snow
6:01 AM 28.4 °F 19.1 °F 26.6 °F 93% 30.20 in 2.5 mi NNE 10.4 mph - 0.00 in Snow Light Snow
6:45 AM 28.4 °F 19.7 °F 26.6 °F 93% 30.21 in 3.0 mi NE 9.2 mph - 0.00 in Snow Light Snow
6:53 AM 28.9 °F 19.8 °F 27.0 °F 92% 30.26 in 4.0 mi NNE 10.4 mph - 0.00 in Snow Light Snow
7:41 AM 28.4 °F 19.1 °F 26.6 °F 93% 30.22 in 10.0 mi NNE 10.4 mph - 0.00 in   Overcast
7:53 AM 28.9 °F 20.4 °F 27.0 °F 92% 30.29 in 10.0 mi NE 9.2 mph - 0.00 in   Overcast
8:53 AM 30.9 °F 26.2 °F 26.1 °F 82% 30.33 in 10.0 mi NE 4.6 mph - N/A   Overcast
10:18 AM 30.2 °F 20.8 °F 26.6 °F 86% 30.31 in 1.8 mi North 11.5 mph - 0.00 in Snow Light Snow
10:32 AM 30.2 °F 22.6 °F 26.6 °F 86% 30.33 in 3.0 mi North 8.1 mph - 0.00 in Snow Light Snow
10:42 AM 32.0 °F 24.8 °F 28.4 °F 87% 30.32 in 3.0 mi North 8.1 mph - 0.00 in Snow Light Snow
10:50 AM 30.2 °F 22.6 °F 28.4 °F 93% 30.33 in 3.0 mi North 8.1 mph - 0.00 in Snow Light Snow
10:53 AM 30.9 °F 23.5 °F 28.0 °F 89% 30.40 in 3.0 mi North 8.1 mph - 0.00 in Snow Light Snow
11:07 AM 30.2 °F 21.9 °F 28.4 °F 93% 30.34 in 2.0 mi North 9.2 mph - 0.00 in Snow Light Snow
11:14 AM 30.2 °F 21.9 °F 28.4 °F 93% 30.35 in 1.2 mi North 9.2 mph - 0.00 in Snow Light Snow
11:24 AM 30.2 °F 22.6 °F 28.4 °F 93% 30.35 in 0.5 mi NNW 8.1 mph - 0.00 in Fog , Snow Snow
11:34 AM 30.2 °F 23.4 °F 28.4 °F 93% 30.35 in 1.5 mi North 6.9 mph - 0.00 in Snow Light Snow
11:42 AM 30.2 °F 23.4 °F 28.4 °F 93% 30.35 in 3.0 mi NNW 6.9 mph - 0.00 in Snow Light Snow
11:47 AM 30.2 °F 23.4 °F 28.4 °F 93% 30.35 in 2.5 mi NNW 6.9 mph - 0.00 in Snow Light Snow
11:53 AM 30.9 °F 23.5 °F 28.0 °F 89% 30.40 in 1.8 mi North 8.1 mph - 0.01 in Snow Light Snow
11:56 AM 30.2 °F 23.4 °F 28.4 °F 93% 30.35 in 2.0 mi North 6.9 mph - 0.00 in Snow Light Snow
12:07 PM 33.8 °F 30.8 °F 28.4 °F 81% 30.35 in 7.0 mi NNE 3.5 mph - 0.00 in Snow Light Snow
12:53 PM 33.1 °F 26.9 °F 27.0 °F 78% 30.39 in 10.0 mi NNW 6.9 mph - 0.00 in   Overcast
1:13 PM 33.8 °F 29.6 °F 26.6 °F 75% 30.34 in 10.0 mi NW 4.6 mph - N/A   Overcast
1:53 PM 34.0 °F 28.8 °F 27.0 °F 75% 30.38 in 10.0 mi North 5.8 mph - N/A   Overcast
2:42 PM 35.6 °F 29.2 °F 26.6 °F 70% 30.33 in 10.0 mi NW 8.1 mph - N/A   Overcast
2:53 PM 35.1 °F 28.6 °F 27.0 °F 72% 30.38 in 10.0 mi NW 8.1 mph - N/A   Overcast
3:53 PM 36.0 °F 31.1 °F 27.0 °F 70% 30.38 in 10.0 mi WNW 5.8 mph - N/A   Overcast
4:53 PM 34.0 °F 28.0 °F 28.0 °F 79% 30.40 in 10.0 mi NW 6.9 mph - N/A   Scattered Clouds
5:53 PM 30.9 °F 25.2 °F 25.0 °F 79% 30.43 in 10.0 mi WNW 5.8 mph - N/A   Clear
6:53 PM 28.0 °F 24.2 °F 24.1 °F 85% 30.44 in 10.0 mi West 3.5 mph - N/A   Clear
7:53 PM 26.1 °F 21.9 °F 21.9 °F 84% 30.44 in 10.0 mi West 3.5 mph - N/A   Clear
8:53 PM 21.9 °F 17.2 °F 19.9 °F 92% 30.44 in 10.0 mi West 3.5 mph - N/A   Clear
9:53 PM 23.0 °F 15.8 °F 19.0 °F 85% 30.45 in 10.0 mi West 5.8 mph - N/A   Clear
10:53 PM 21.9 °F 12.5 °F 18.0 °F 85% 30.46 in 10.0 mi West 8.1 mph - N/A   Clear
11:53 PM 21.0 °F 14.6 °F 16.0 °F 81% 30.46 in 10.0 mi West 4.6 mph - N/A   Clear